Location: Apollinopolis Magna
(24.9792°N, 32.8772°E)
Time: 03:46:01
(UTC+00:00)

TSX-5 - Pass Details

Date: 02 March 2021
Orbit: 404 x 1321 km, 68.9° (Epoch: 12 April)

Event Time Altitude Azimuth Distance (km) Brightness Sun altitude
Rises 16:18:31 0° 341° (NNW) 2,612 7.5 -7.0°
Reaches altitude 10° 16:20:48 10° 343° (NNW) 1,627 6.4 -7.5°
Maximum altitude 16:24:17 74° 68° (ENE) 445 3.2 -8.3°
Drops below altitude 10° 16:27:24 10° 155° (SSE) 1,457 5.8 -9.0°
Sets 16:29:22 0° 157° (SSE) 2,305 6.8 -9.4°
